Year,Month,Day,Hour,Minute,Value (Times are PST for temperature in C)
2009,05,22,00,00,8.70
2009,05,22,00,01,8.70
2009,05,22,00,02,8.70
2009,05,22,00,03,8.70
2009,05,22,00,04,8.60
2009,05,22,00,05,8.60
2009,05,22,00,06,8.60
2009,05,22,00,07,8.60
2009,05,22,00,08,8.60
2009,05,22,00,09,8.60
2009,05,22,00,10,8.60
2009,05,22,00,11,8.60
2009,05,22,00,12,8.50
2009,05,22,00,13,8.50
2009,05,22,00,14,8.50
2009,05,22,00,15,8.50
2009,05,22,00,16,8.40
2009,05,22,00,17,8.40
2009,05,22,00,18,8.40
2009,05,22,00,19,8.40
2009,05,22,00,20,8.30
2009,05,22,00,21,8.30
2009,05,22,00,22,8.30
2009,05,22,00,23,8.20
2009,05,22,00,24,8.20
2009,05,22,00,25,8.20
2009,05,22,00,26,8.20
2009,05,22,00,27,8.20
2009,05,22,00,28,8.10
2009,05,22,00,29,8.10
2009,05,22,00,30,8.10
2009,05,22,00,31,8.00
2009,05,22,00,32,8.00
2009,05,22,00,33,8.00
2009,05,22,00,34,7.90
2009,05,22,00,35,7.90
2009,05,22,00,36,7.90
2009,05,22,00,37,7.80
2009,05,22,00,38,7.80
2009,05,22,00,39,7.80
2009,05,22,00,40,7.70
2009,05,22,00,41,7.70
2009,05,22,00,42,7.60
2009,05,22,00,43,7.60
2009,05,22,00,44,7.50
2009,05,22,00,45,7.50
2009,05,22,00,46,7.50
2009,05,22,00,47,7.40
2009,05,22,00,48,7.40
2009,05,22,00,49,7.30
2009,05,22,00,50,7.30
2009,05,22,00,51,7.30
2009,05,22,00,52,7.30
2009,05,22,00,53,7.30
2009,05,22,00,54,7.30
2009,05,22,00,55,7.30
2009,05,22,00,56,7.20
2009,05,22,00,57,7.20
2009,05,22,00,58,7.20
2009,05,22,00,59,7.20
2009,05,22,01,00,7.10
2009,05,22,01,01,7.10
2009,05,22,01,02,7.10
2009,05,22,01,03,7.10
2009,05,22,01,04,7.10
2009,05,22,01,05,7.00
2009,05,22,01,06,7.00
2009,05,22,01,07,7.00
2009,05,22,01,08,6.90
2009,05,22,01,09,6.90
2009,05,22,01,10,6.90
2009,05,22,01,11,6.90
2009,05,22,01,12,6.90
2009,05,22,01,13,6.90
2009,05,22,01,14,6.90
2009,05,22,01,15,6.90
2009,05,22,01,16,6.90
2009,05,22,01,17,6.90
2009,05,22,01,18,6.90
2009,05,22,01,19,7.00
2009,05,22,01,20,7.00
2009,05,22,01,21,7.10
2009,05,22,01,22,7.10
2009,05,22,01,23,7.10
2009,05,22,01,24,7.10
2009,05,22,01,25,7.10
2009,05,22,01,26,7.10
2009,05,22,01,27,7.10
2009,05,22,01,28,7.10
2009,05,22,01,29,7.00
2009,05,22,01,30,7.00
2009,05,22,01,31,7.00
2009,05,22,01,32,7.00
2009,05,22,01,33,7.00
2009,05,22,01,34,7.00
2009,05,22,01,35,7.10
2009,05,22,01,36,7.10
2009,05,22,01,37,7.10
2009,05,22,01,38,7.10
2009,05,22,01,39,7.10
2009,05,22,01,40,7.10
2009,05,22,01,41,7.00
2009,05,22,01,42,7.00
2009,05,22,01,43,7.00
2009,05,22,01,44,6.90
2009,05,22,01,45,6.90
2009,05,22,01,46,6.80
2009,05,22,01,47,6.90
2009,05,22,01,48,6.90
2009,05,22,01,49,6.90
2009,05,22,01,50,6.80
2009,05,22,01,51,6.80
2009,05,22,01,52,6.80
2009,05,22,01,53,6.80
2009,05,22,01,54,6.80
2009,05,22,01,55,6.80
2009,05,22,01,56,6.80
2009,05,22,01,57,6.90
2009,05,22,01,58,6.90
2009,05,22,01,59,6.90
2009,05,22,02,00,6.90
2009,05,22,02,01,6.80
2009,05,22,02,02,6.80
2009,05,22,02,03,6.80
2009,05,22,02,04,6.80
2009,05,22,02,05,6.80
2009,05,22,02,06,6.80
2009,05,22,02,07,6.80
2009,05,22,02,08,6.80
2009,05,22,02,09,6.80
2009,05,22,02,10,6.80
2009,05,22,02,11,6.80
2009,05,22,02,12,6.80
2009,05,22,02,13,6.70
2009,05,22,02,14,6.70
2009,05,22,02,15,6.70
2009,05,22,02,16,6.70
2009,05,22,02,17,6.70
2009,05,22,02,18,6.70
2009,05,22,02,19,6.80
2009,05,22,02,20,6.80
2009,05,22,02,21,6.80
2009,05,22,02,22,6.80
2009,05,22,02,23,6.80
2009,05,22,02,24,6.80
2009,05,22,02,25,6.90
2009,05,22,02,26,6.90
2009,05,22,02,27,6.90
2009,05,22,02,28,6.90
2009,05,22,02,29,7.00
2009,05,22,02,30,7.00
2009,05,22,02,31,7.00
2009,05,22,02,32,7.00
2009,05,22,02,33,7.00
2009,05,22,02,34,7.00
2009,05,22,02,35,7.00
2009,05,22,02,36,7.00
2009,05,22,02,37,6.90
2009,05,22,02,38,6.90
2009,05,22,02,39,6.90
2009,05,22,02,40,6.80
2009,05,22,02,41,6.80
2009,05,22,02,42,6.80
2009,05,22,02,43,6.80
2009,05,22,02,44,6.80
2009,05,22,02,45,6.80
2009,05,22,02,46,6.80
2009,05,22,02,47,6.80
2009,05,22,02,48,6.90
2009,05,22,02,49,6.90
2009,05,22,02,50,6.90
2009,05,22,02,51,6.90
2009,05,22,02,52,7.00
2009,05,22,02,53,7.00
2009,05,22,02,54,7.00
2009,05,22,02,55,7.00
2009,05,22,02,56,7.10
2009,05,22,02,57,7.10
2009,05,22,02,58,7.20
2009,05,22,02,59,7.20
2009,05,22,03,00,7.30
2009,05,22,03,01,7.30
2009,05,22,03,02,7.30
2009,05,22,03,03,7.40
2009,05,22,03,04,7.40
2009,05,22,03,05,7.40
2009,05,22,03,06,7.40
2009,05,22,03,07,7.40
2009,05,22,03,08,7.40
2009,05,22,03,09,7.40
2009,05,22,03,10,7.30
2009,05,22,03,11,7.30
2009,05,22,03,12,7.30
2009,05,22,03,13,7.20
2009,05,22,03,14,7.20
2009,05,22,03,15,7.10
2009,05,22,03,16,7.00
2009,05,22,03,17,7.00
2009,05,22,03,18,6.90
2009,05,22,03,19,6.90
2009,05,22,03,20,6.80
2009,05,22,03,21,6.80
2009,05,22,03,22,6.80
2009,05,22,03,23,6.80
2009,05,22,03,24,6.80
2009,05,22,03,25,6.80
2009,05,22,03,26,6.80
2009,05,22,03,27,6.80
2009,05,22,03,28,6.70
2009,05,22,03,29,6.70
2009,05,22,03,30,6.70
2009,05,22,03,31,6.70
2009,05,22,03,32,6.70
2009,05,22,03,33,6.70
2009,05,22,03,34,6.70
2009,05,22,03,35,6.70
2009,05,22,03,36,6.70
2009,05,22,03,37,6.70
2009,05,22,03,38,6.70
2009,05,22,03,39,6.70
2009,05,22,03,40,6.60
2009,05,22,03,41,6.60
2009,05,22,03,42,6.60
2009,05,22,03,43,6.60
2009,05,22,03,44,6.60
2009,05,22,03,45,6.60
2009,05,22,03,46,6.40
2009,05,22,03,47,6.40
2009,05,22,03,48,6.40
2009,05,22,03,49,6.40
2009,05,22,03,50,6.30
2009,05,22,03,51,6.30
2009,05,22,03,52,6.20
2009,05,22,03,53,6.20
2009,05,22,03,54,6.20
2009,05,22,03,55,6.20
2009,05,22,03,56,6.20
2009,05,22,03,57,6.20
2009,05,22,03,58,6.20
2009,05,22,03,59,6.20
2009,05,22,04,00,6.20
2009,05,22,04,01,6.20
2009,05,22,04,02,6.20
2009,05,22,04,03,6.20
2009,05,22,04,04,6.20
2009,05,22,04,05,6.20
2009,05,22,04,06,6.20
2009,05,22,04,07,6.20
2009,05,22,04,08,6.20
2009,05,22,04,09,6.20
2009,05,22,04,10,6.20
2009,05,22,04,11,6.10
2009,05,22,04,12,6.00
2009,05,22,04,13,6.00
2009,05,22,04,14,5.90
2009,05,22,04,15,5.90
2009,05,22,04,16,5.80
2009,05,22,04,17,5.80
2009,05,22,04,18,5.70
2009,05,22,04,19,5.70
2009,05,22,04,20,5.70
2009,05,22,04,21,5.70
2009,05,22,04,22,5.70
2009,05,22,04,23,5.70
2009,05,22,04,24,5.70
2009,05,22,04,25,5.70
2009,05,22,04,26,5.70
2009,05,22,04,27,5.60
2009,05,22,04,28,5.60
2009,05,22,04,29,5.50
2009,05,22,04,30,5.50
2009,05,22,04,31,5.50
2009,05,22,04,32,5.50
2009,05,22,04,33,5.50
2009,05,22,04,34,5.50
2009,05,22,04,35,5.60
2009,05,22,04,36,5.60
2009,05,22,04,37,5.60
2009,05,22,04,38,5.70
2009,05,22,04,39,5.70
2009,05,22,04,40,5.70
2009,05,22,04,41,5.70
2009,05,22,04,42,5.70
2009,05,22,04,43,5.60
2009,05,22,04,44,5.60
2009,05,22,04,45,5.60
2009,05,22,04,46,5.60
2009,05,22,04,47,5.70
2009,05,22,04,48,5.70
2009,05,22,04,49,5.80
2009,05,22,04,50,5.90
2009,05,22,04,51,5.90
2009,05,22,04,52,5.90
2009,05,22,04,53,5.90
2009,05,22,04,54,5.90
2009,05,22,04,55,5.90
2009,05,22,04,56,5.80
2009,05,22,04,57,5.80
2009,05,22,04,58,5.70
2009,05,22,04,59,5.70
2009,05,22,05,00,5.70
2009,05,22,05,01,5.70
2009,05,22,05,02,5.70
2009,05,22,05,03,5.70
2009,05,22,05,04,5.70
2009,05,22,05,05,5.70
2009,05,22,05,06,5.70
2009,05,22,05,07,5.70
2009,05,22,05,08,5.70
2009,05,22,05,09,5.70
2009,05,22,05,10,5.70
2009,05,22,05,11,5.70
2009,05,22,05,12,5.70
2009,05,22,05,13,5.70
2009,05,22,05,14,5.70
2009,05,22,05,15,5.70
2009,05,22,05,16,5.80
2009,05,22,05,17,5.90
2009,05,22,05,18,5.90
2009,05,22,05,19,6.00
2009,05,22,05,20,6.00
2009,05,22,05,21,6.10
2009,05,22,05,22,6.10
2009,05,22,05,23,6.20
2009,05,22,05,24,6.20
2009,05,22,05,25,6.20
2009,05,22,05,26,6.30
2009,05,22,05,27,6.30
2009,05,22,05,28,6.40
2009,05,22,05,29,6.40
2009,05,22,05,30,6.40
2009,05,22,05,31,6.40
2009,05,22,05,32,6.40
2009,05,22,05,33,6.40
2009,05,22,05,34,6.40
2009,05,22,05,35,6.40
2009,05,22,05,36,6.40
2009,05,22,05,37,6.40
2009,05,22,05,38,6.40
2009,05,22,05,39,6.40
2009,05,22,05,40,6.40
2009,05,22,05,41,6.40
2009,05,22,05,42,6.40
2009,05,22,05,43,6.40
2009,05,22,05,44,6.40
2009,05,22,05,45,6.40
2009,05,22,05,46,6.60
2009,05,22,05,47,6.60
2009,05,22,05,48,6.60
2009,05,22,05,49,6.60
2009,05,22,05,50,6.60
2009,05,22,05,51,6.60
2009,05,22,05,52,6.60
2009,05,22,05,53,6.60
2009,05,22,05,54,6.60
2009,05,22,05,55,6.60
2009,05,22,05,56,6.60
2009,05,22,05,57,6.60
2009,05,22,05,58,6.60
2009,05,22,05,59,6.60
2009,05,22,06,00,6.60
2009,05,22,06,01,6.70
2009,05,22,06,02,6.70
2009,05,22,06,03,6.70
2009,05,22,06,04,6.60
2009,05,22,06,05,6.60
2009,05,22,06,06,6.60
2009,05,22,06,07,6.70
2009,05,22,06,08,6.70
2009,05,22,06,09,6.70
2009,05,22,06,10,6.70
2009,05,22,06,11,6.80
2009,05,22,06,12,6.80
2009,05,22,06,13,6.80
2009,05,22,06,14,6.90
2009,05,22,06,15,6.90
2009,05,22,06,16,6.90
2009,05,22,06,17,6.90
2009,05,22,06,18,7.00
2009,05,22,06,19,7.00
2009,05,22,06,20,6.90
2009,05,22,06,21,6.90
2009,05,22,06,22,6.90
2009,05,22,06,23,6.90
2009,05,22,06,24,6.90
2009,05,22,06,25,6.90
2009,05,22,06,26,7.00
2009,05,22,06,27,7.00
2009,05,22,06,28,7.10
2009,05,22,06,29,7.10
2009,05,22,06,30,7.20
2009,05,22,06,31,7.20
2009,05,22,06,32,7.30
2009,05,22,06,33,7.40
2009,05,22,06,34,7.50
2009,05,22,06,35,7.60
2009,05,22,06,36,7.70
2009,05,22,06,37,7.80
2009,05,22,06,38,7.80
2009,05,22,06,39,7.80
2009,05,22,06,40,7.90
2009,05,22,06,41,7.90
2009,05,22,06,42,8.00
2009,05,22,06,43,8.10
2009,05,22,06,44,8.20
2009,05,22,06,45,8.20
2009,05,22,06,46,8.20
2009,05,22,06,47,8.30
2009,05,22,06,48,8.40
2009,05,22,06,49,8.50
2009,05,22,06,50,8.50
2009,05,22,06,51,8.60
2009,05,22,06,52,8.70
2009,05,22,06,53,8.70
2009,05,22,06,54,8.80
2009,05,22,06,55,8.90
2009,05,22,06,56,9.00
2009,05,22,06,57,9.00
2009,05,22,06,58,9.10
2009,05,22,06,59,9.20
2009,05,22,07,00,9.20
2009,05,22,07,01,9.30
2009,05,22,07,02,9.30
2009,05,22,07,03,9.40
2009,05,22,07,04,9.40
2009,05,22,07,05,9.40
2009,05,22,07,06,9.50
2009,05,22,07,07,9.70
2009,05,22,07,08,9.70
2009,05,22,07,09,9.80
2009,05,22,07,10,9.90
2009,05,22,07,11,10.00
2009,05,22,07,12,10.10
2009,05,22,07,13,10.10
2009,05,22,07,14,10.20
2009,05,22,07,15,10.20
2009,05,22,07,16,10.30
2009,05,22,07,17,10.40
2009,05,22,07,18,10.50
2009,05,22,07,19,10.60
2009,05,22,07,20,10.70
2009,05,22,07,21,10.80
2009,05,22,07,22,10.90
2009,05,22,07,23,10.90
2009,05,22,07,24,11.00
2009,05,22,07,25,11.10
2009,05,22,07,26,11.10
2009,05,22,07,27,11.10
2009,05,22,07,28,11.20
2009,05,22,07,29,11.30
2009,05,22,07,30,11.40
2009,05,22,07,31,11.40
2009,05,22,07,32,11.40
2009,05,22,07,33,11.40
2009,05,22,07,34,11.40
2009,05,22,07,35,11.40
2009,05,22,07,36,11.40
2009,05,22,07,37,11.40
2009,05,22,07,38,11.50
2009,05,22,07,39,11.60
2009,05,22,07,40,11.60
2009,05,22,07,41,11.60
2009,05,22,07,42,11.60
2009,05,22,07,43,11.60
2009,05,22,07,44,11.60
2009,05,22,07,45,11.60
2009,05,22,07,46,11.70
2009,05,22,07,47,11.70
2009,05,22,07,48,11.60
2009,05,22,07,49,11.60
2009,05,22,07,50,11.50
2009,05,22,07,51,11.40
2009,05,22,07,52,11.40
2009,05,22,07,53,11.40
2009,05,22,07,54,11.40
2009,05,22,07,55,11.40
2009,05,22,07,56,11.30
2009,05,22,07,57,11.30
2009,05,22,07,58,11.30
2009,05,22,07,59,11.20
2009,05,22,08,00,11.20
2009,05,22,08,01,11.30
2009,05,22,08,02,11.30
2009,05,22,08,03,11.30
2009,05,22,08,04,11.30
2009,05,22,08,05,11.30
2009,05,22,08,06,11.40
2009,05,22,08,07,11.40
2009,05,22,08,08,11.40
2009,05,22,08,09,11.40
2009,05,22,08,10,11.60
2009,05,22,08,11,11.60
2009,05,22,08,12,11.60
2009,05,22,08,13,11.70
2009,05,22,08,14,11.70
2009,05,22,08,15,11.70
2009,05,22,08,16,11.80
2009,05,22,08,17,11.80
2009,05,22,08,18,11.80
2009,05,22,08,19,11.90
2009,05,22,08,20,12.00
2009,05,22,08,21,12.00
2009,05,22,08,22,12.10
2009,05,22,08,23,12.20
2009,05,22,08,24,12.30
2009,05,22,08,25,12.30
2009,05,22,08,26,12.40
2009,05,22,08,27,12.50
2009,05,22,08,28,12.60
2009,05,22,08,29,12.70
2009,05,22,08,30,12.80
2009,05,22,08,31,13.00
2009,05,22,08,32,13.10
2009,05,22,08,33,13.20
2009,05,22,08,34,13.30
2009,05,22,08,35,13.30
2009,05,22,08,36,13.40
2009,05,22,08,37,13.50
2009,05,22,08,38,13.60
2009,05,22,08,39,13.70
2009,05,22,08,40,13.70
2009,05,22,08,41,13.90
2009,05,22,08,42,13.90
2009,05,22,08,43,14.10
2009,05,22,08,44,14.20
2009,05,22,08,45,14.40
2009,05,22,08,46,14.50
2009,05,22,08,47,14.50
2009,05,22,08,48,14.60
2009,05,22,08,49,14.60
2009,05,22,08,50,14.60
2009,05,22,08,51,14.70
2009,05,22,08,52,14.70
2009,05,22,08,53,14.70
2009,05,22,08,54,14.80
2009,05,22,08,55,14.80
2009,05,22,08,56,14.90
2009,05,22,08,57,14.90
2009,05,22,08,58,15.00
2009,05,22,08,59,15.10
2009,05,22,09,00,15.20
2009,05,22,09,01,15.40
2009,05,22,09,02,15.40
2009,05,22,09,03,15.40
2009,05,22,09,04,15.50
2009,05,22,09,05,15.50
2009,05,22,09,06,15.40
2009,05,22,09,07,15.50
2009,05,22,09,08,15.50
2009,05,22,09,09,15.40
2009,05,22,09,10,15.40
2009,05,22,09,11,15.40
2009,05,22,09,12,15.50
2009,05,22,09,13,15.50
2009,05,22,09,14,15.60
2009,05,22,09,15,15.50
2009,05,22,09,16,15.60
2009,05,22,09,17,15.60
2009,05,22,09,18,15.50
2009,05,22,09,19,15.50
2009,05,22,09,20,15.50
2009,05,22,09,21,15.50
2009,05,22,09,22,15.60
2009,05,22,09,23,15.50
2009,05,22,09,24,15.60
2009,05,22,09,25,15.60
2009,05,22,09,26,15.60
2009,05,22,09,27,15.70
2009,05,22,09,28,15.80
2009,05,22,09,29,15.80
2009,05,22,09,30,15.80
2009,05,22,09,31,15.90
2009,05,22,09,32,16.00
2009,05,22,09,33,16.10
2009,05,22,09,34,16.10
2009,05,22,09,35,15.90
2009,05,22,09,36,15.90
2009,05,22,09,37,15.90
2009,05,22,09,38,15.90
2009,05,22,09,39,16.00
2009,05,22,09,40,16.10
2009,05,22,09,41,16.20
2009,05,22,09,42,16.20
2009,05,22,09,43,16.10
2009,05,22,09,44,16.00
2009,05,22,09,45,15.80
2009,05,22,09,46,15.80
2009,05,22,09,47,15.90
2009,05,22,09,48,16.00
2009,05,22,09,49,16.10
2009,05,22,09,50,16.20
2009,05,22,09,51,16.30
2009,05,22,09,52,16.40
2009,05,22,09,53,16.40
2009,05,22,09,54,16.60
2009,05,22,09,55,16.60
2009,05,22,09,56,16.70
2009,05,22,09,57,16.70
2009,05,22,09,58,16.90
2009,05,22,09,59,17.00
2009,05,22,10,00,17.20
2009,05,22,10,01,17.30
2009,05,22,10,02,17.30
2009,05,22,10,03,17.20
2009,05,22,10,04,17.10
2009,05,22,10,05,17.00
2009,05,22,10,06,17.00
2009,05,22,10,07,17.00
2009,05,22,10,08,17.00
2009,05,22,10,09,17.00
2009,05,22,10,10,16.90
2009,05,22,10,11,16.90
2009,05,22,10,12,16.90
2009,05,22,10,13,17.00
2009,05,22,10,14,17.00
2009,05,22,10,15,17.00
2009,05,22,10,16,17.10
2009,05,22,10,17,17.20
2009,05,22,10,18,17.30
2009,05,22,10,19,17.40
2009,05,22,10,20,17.40
2009,05,22,10,21,17.40
2009,05,22,10,22,17.30
2009,05,22,10,23,17.10
2009,05,22,10,24,16.90
2009,05,22,10,25,16.80
2009,05,22,10,26,16.70
2009,05,22,10,27,16.70
2009,05,22,10,28,16.50
2009,05,22,10,29,16.40
2009,05,22,10,30,16.40
2009,05,22,10,31,16.40
2009,05,22,10,32,16.60
2009,05,22,10,33,16.70
2009,05,22,10,34,16.70
2009,05,22,10,35,16.80
2009,05,22,10,36,16.80
2009,05,22,10,37,16.70
2009,05,22,10,38,16.80
2009,05,22,10,39,16.90
2009,05,22,10,40,16.90
2009,05,22,10,41,16.90
2009,05,22,10,42,16.90
2009,05,22,10,43,16.90
2009,05,22,10,44,16.90
2009,05,22,10,45,16.90
2009,05,22,10,46,17.00
2009,05,22,10,47,17.00
2009,05,22,10,48,17.10
2009,05,22,10,49,17.20
2009,05,22,10,50,17.20
2009,05,22,10,51,17.20
2009,05,22,10,52,17.10
2009,05,22,10,53,17.00
2009,05,22,10,54,16.90
2009,05,22,10,55,16.80
2009,05,22,10,56,16.70
2009,05,22,10,57,16.60
2009,05,22,10,58,16.60
2009,05,22,10,59,16.60
2009,05,22,11,00,16.70
2009,05,22,11,01,16.70
2009,05,22,11,02,16.80
2009,05,22,11,03,16.80
2009,05,22,11,04,16.80
2009,05,22,11,05,16.80
2009,05,22,11,06,16.80
2009,05,22,11,07,16.90
2009,05,22,11,08,16.90
2009,05,22,11,09,16.90
2009,05,22,11,10,16.80
2009,05,22,11,11,16.70
2009,05,22,11,12,16.50
2009,05,22,11,13,16.40
2009,05,22,11,14,16.20
2009,05,22,11,15,16.00
2009,05,22,11,16,15.90
2009,05,22,11,17,15.90
2009,05,22,11,18,15.90
2009,05,22,11,19,15.80
2009,05,22,11,20,15.80
2009,05,22,11,21,15.80
2009,05,22,11,22,15.80
2009,05,22,11,23,15.80
2009,05,22,11,24,15.90
2009,05,22,11,25,16.00
2009,05,22,11,26,16.10
2009,05,22,11,27,16.20
2009,05,22,11,28,16.40
2009,05,22,11,29,16.60
2009,05,22,11,30,16.70
2009,05,22,11,31,16.90
2009,05,22,11,32,17.00
2009,05,22,11,33,17.00
2009,05,22,11,34,17.00
2009,05,22,11,35,17.10
2009,05,22,11,36,17.20
2009,05,22,11,37,17.30
2009,05,22,11,38,17.40
2009,05,22,11,39,17.40
2009,05,22,11,40,17.50
2009,05,22,11,41,17.60
2009,05,22,11,42,17.70
2009,05,22,11,43,17.80
2009,05,22,11,44,17.80
2009,05,22,11,45,17.80
2009,05,22,11,46,17.70
2009,05,22,11,47,17.50
2009,05,22,11,48,17.30
2009,05,22,11,49,17.00
2009,05,22,11,50,16.90
2009,05,22,11,51,16.70
2009,05,22,11,52,16.60
2009,05,22,11,53,16.40
2009,05,22,11,54,16.30
2009,05,22,11,55,16.30
2009,05,22,11,56,16.20
2009,05,22,11,57,16.20
2009,05,22,11,58,16.30
2009,05,22,11,59,16.30
2009,05,22,12,00,16.30
2009,05,22,12,01,16.40
2009,05,22,12,02,16.50
2009,05,22,12,03,16.60
2009,05,22,12,04,16.70
2009,05,22,12,05,16.70
2009,05,22,12,06,16.80
2009,05,22,12,07,16.80
2009,05,22,12,08,16.80
2009,05,22,12,09,16.80
2009,05,22,12,10,16.80
2009,05,22,12,11,16.90
2009,05,22,12,12,17.00
2009,05,22,12,13,17.00
2009,05,22,12,14,17.00
2009,05,22,12,15,17.00
2009,05,22,12,16,17.20
2009,05,22,12,17,17.20
2009,05,22,12,18,17.20
2009,05,22,12,19,17.30
2009,05,22,12,20,17.30
2009,05,22,12,21,17.30
2009,05,22,12,22,17.20
2009,05,22,12,23,17.20
2009,05,22,12,24,17.20
2009,05,22,12,25,17.30
2009,05,22,12,26,17.30
2009,05,22,12,27,17.30
2009,05,22,12,28,17.30
2009,05,22,12,29,17.30
2009,05,22,12,30,17.30
2009,05,22,12,31,17.20
2009,05,22,12,32,17.10
2009,05,22,12,33,17.00
2009,05,22,12,34,17.00
2009,05,22,12,35,16.90
2009,05,22,12,36,16.90
2009,05,22,12,37,16.80
2009,05,22,12,38,16.70
2009,05,22,12,39,16.80
2009,05,22,12,40,16.90
2009,05,22,12,41,17.00
2009,05,22,12,42,17.10
2009,05,22,12,43,17.30
2009,05,22,12,44,17.40
2009,05,22,12,45,17.50
2009,05,22,12,46,17.50
2009,05,22,12,47,17.50
2009,05,22,12,48,17.50
2009,05,22,12,49,17.50
2009,05,22,12,50,17.40
2009,05,22,12,51,17.50
2009,05,22,12,52,17.60
2009,05,22,12,53,17.60
2009,05,22,12,54,17.60
2009,05,22,12,55,17.70
2009,05,22,12,56,17.70
2009,05,22,12,57,17.80
2009,05,22,12,58,17.80
2009,05,22,12,59,17.80
2009,05,22,13,00,17.80
2009,05,22,13,01,17.80
2009,05,22,13,02,17.80
2009,05,22,13,03,17.80
2009,05,22,13,04,17.80
2009,05,22,13,05,17.80
2009,05,22,13,06,17.90
2009,05,22,13,07,17.80
2009,05,22,13,08,17.80
2009,05,22,13,09,17.90
2009,05,22,13,10,17.90
2009,05,22,13,11,17.90
2009,05,22,13,12,18.00
2009,05,22,13,13,18.10
2009,05,22,13,14,18.20
2009,05,22,13,15,18.10
2009,05,22,13,16,18.10
2009,05,22,13,17,18.20
2009,05,22,13,18,18.20
2009,05,22,13,19,18.20
2009,05,22,13,20,18.20
2009,05,22,13,21,18.20
2009,05,22,13,22,18.20
2009,05,22,13,23,18.20
2009,05,22,13,24,18.20
2009,05,22,13,25,18.10
2009,05,22,13,26,18.10
2009,05,22,13,27,18.10
2009,05,22,13,28,18.20
2009,05,22,13,29,18.30
2009,05,22,13,30,18.40
2009,05,22,13,31,18.40
2009,05,22,13,32,18.50
2009,05,22,13,33,18.60
2009,05,22,13,34,18.70
2009,05,22,13,35,18.80
2009,05,22,13,36,18.80
2009,05,22,13,37,18.80
2009,05,22,13,38,18.80
2009,05,22,13,39,18.80
2009,05,22,13,40,18.70
2009,05,22,13,41,18.60
2009,05,22,13,42,18.50
2009,05,22,13,43,18.40
2009,05,22,13,44,18.40
2009,05,22,13,45,18.50
2009,05,22,13,46,18.50
2009,05,22,13,47,18.60
2009,05,22,13,48,18.60
2009,05,22,13,49,18.70
2009,05,22,13,50,18.80
2009,05,22,13,51,18.80
2009,05,22,13,52,18.90
2009,05,22,13,53,18.90
2009,05,22,13,54,19.00
2009,05,22,13,55,19.00
2009,05,22,13,56,18.80
2009,05,22,13,57,18.60
2009,05,22,13,58,18.50
2009,05,22,13,59,18.40
2009,05,22,14,00,18.30
2009,05,22,14,01,18.20
2009,05,22,14,02,18.20
2009,05,22,14,03,18.20
2009,05,22,14,04,18.30
2009,05,22,14,05,18.40
2009,05,22,14,06,18.50
2009,05,22,14,07,18.50
2009,05,22,14,08,18.50
2009,05,22,14,09,18.50
2009,05,22,14,10,18.60
2009,05,22,14,11,18.60
2009,05,22,14,12,18.60
2009,05,22,14,13,18.70
2009,05,22,14,14,18.80
2009,05,22,14,15,18.90
2009,05,22,14,16,18.90
2009,05,22,14,17,18.80
2009,05,22,14,18,18.90
2009,05,22,14,19,19.00
2009,05,22,14,20,19.00
2009,05,22,14,21,18.90
2009,05,22,14,22,18.90
2009,05,22,14,23,18.90
2009,05,22,14,24,19.10
2009,05,22,14,25,19.00
2009,05,22,14,26,18.90
2009,05,22,14,27,18.90
2009,05,22,14,28,18.90
2009,05,22,14,29,18.80
2009,05,22,14,30,18.70
2009,05,22,14,31,18.70
2009,05,22,14,32,18.70
2009,05,22,14,33,18.70
2009,05,22,14,34,18.70
2009,05,22,14,35,18.70
2009,05,22,14,36,18.80
2009,05,22,14,37,18.90
2009,05,22,14,38,19.00
2009,05,22,14,39,19.10
2009,05,22,14,40,19.20
2009,05,22,14,41,19.40
2009,05,22,14,42,19.50
2009,05,22,14,43,19.50
2009,05,22,14,44,19.60
2009,05,22,14,45,19.50
2009,05,22,14,46,19.40
2009,05,22,14,47,19.20
2009,05,22,14,48,19.20
2009,05,22,14,49,19.10
2009,05,22,14,50,19.10
2009,05,22,14,51,19.10
2009,05,22,14,52,19.10
2009,05,22,14,53,19.10
2009,05,22,14,54,19.10
2009,05,22,14,55,19.20
2009,05,22,14,56,19.30
2009,05,22,14,57,19.50
2009,05,22,14,58,19.60
2009,05,22,14,59,19.70
2009,05,22,15,00,19.70
2009,05,22,15,01,19.80
2009,05,22,15,02,19.80
2009,05,22,15,03,19.80
2009,05,22,15,04,19.90
2009,05,22,15,05,19.90
2009,05,22,15,06,19.90
2009,05,22,15,07,19.90
2009,05,22,15,08,19.90
2009,05,22,15,09,20.00
2009,05,22,15,10,19.90
2009,05,22,15,11,19.80
2009,05,22,15,12,19.80
2009,05,22,15,13,19.90
2009,05,22,15,14,20.00
2009,05,22,15,15,20.20
2009,05,22,15,16,20.20
2009,05,22,15,17,20.20
2009,05,22,15,18,20.40
2009,05,22,15,19,20.50
2009,05,22,15,20,20.70
2009,05,22,15,21,20.80
2009,05,22,15,22,20.90
2009,05,22,15,23,21.00
2009,05,22,15,24,21.00
2009,05,22,15,25,20.90
2009,05,22,15,26,20.80
2009,05,22,15,27,20.80
2009,05,22,15,28,20.90
2009,05,22,15,29,20.80
2009,05,22,15,30,20.60
2009,05,22,15,31,20.50
2009,05,22,15,32,20.50
2009,05,22,15,33,20.50
2009,05,22,15,34,20.60
2009,05,22,15,35,20.70
2009,05,22,15,36,20.70
2009,05,22,15,37,20.70
2009,05,22,15,38,20.70
2009,05,22,15,39,20.80
2009,05,22,15,40,20.90
2009,05,22,15,41,20.90
2009,05,22,15,42,21.00
2009,05,22,15,43,21.00
2009,05,22,15,44,21.00
2009,05,22,15,45,21.00
2009,05,22,15,46,21.00
2009,05,22,15,47,21.00
2009,05,22,15,48,21.00
2009,05,22,15,49,20.90
2009,05,22,15,50,20.80
2009,05,22,15,51,20.80
2009,05,22,15,52,20.80
2009,05,22,15,53,20.80
2009,05,22,15,54,20.90
2009,05,22,15,55,21.00
2009,05,22,15,56,21.00
2009,05,22,15,57,21.10
2009,05,22,15,58,21.20
2009,05,22,15,59,21.30
2009,05,22,16,00,21.30
2009,05,22,16,01,21.30
2009,05,22,16,02,21.40
2009,05,22,16,03,21.40
2009,05,22,16,04,21.50
2009,05,22,16,05,21.60
2009,05,22,16,06,21.60
2009,05,22,16,07,21.60
2009,05,22,16,08,21.60
2009,05,22,16,09,21.50
2009,05,22,16,10,21.40
2009,05,22,16,11,21.40
2009,05,22,16,12,21.50
2009,05,22,16,13,21.40
2009,05,22,16,14,21.40
2009,05,22,16,15,21.30
2009,05,22,16,16,21.30
2009,05,22,16,17,21.30
2009,05,22,16,18,21.30
2009,05,22,16,19,21.30
2009,05,22,16,20,21.30
2009,05,22,16,21,21.10
2009,05,22,16,22,20.90
2009,05,22,16,23,20.90
2009,05,22,16,24,20.80
2009,05,22,16,25,20.70
2009,05,22,16,26,20.70
2009,05,22,16,27,20.70
2009,05,22,16,28,20.80
2009,05,22,16,29,20.80
2009,05,22,16,30,20.80
2009,05,22,16,31,20.90
2009,05,22,16,32,20.90
2009,05,22,16,33,20.80
2009,05,22,16,34,20.80
2009,05,22,16,35,20.70
2009,05,22,16,36,20.50
2009,05,22,16,37,20.50
2009,05,22,16,38,20.40
2009,05,22,16,39,20.50
2009,05,22,16,40,20.40
2009,05,22,16,41,20.40
2009,05,22,16,42,20.40
2009,05,22,16,43,20.30
2009,05,22,16,44,20.20
2009,05,22,16,45,20.20
2009,05,22,16,46,20.20
2009,05,22,16,47,20.30
2009,05,22,16,48,20.30
2009,05,22,16,49,20.30
2009,05,22,16,50,20.20
2009,05,22,16,51,20.10
2009,05,22,16,52,20.10
2009,05,22,16,53,20.10
2009,05,22,16,54,20.20
2009,05,22,16,55,20.20
2009,05,22,16,56,20.20
2009,05,22,16,57,20.20
2009,05,22,16,58,20.20
2009,05,22,16,59,20.20
2009,05,22,17,00,20.20
2009,05,22,17,01,20.30
2009,05,22,17,02,20.40
2009,05,22,17,03,20.40
2009,05,22,17,04,20.40
2009,05,22,17,05,20.40
2009,05,22,17,06,20.50
2009,05,22,17,07,20.50
2009,05,22,17,08,20.60
2009,05,22,17,09,20.60
2009,05,22,17,10,20.70
2009,05,22,17,11,20.70
2009,05,22,17,12,20.80
2009,05,22,17,13,20.80
2009,05,22,17,14,20.90
2009,05,22,17,15,20.80
2009,05,22,17,16,20.70
2009,05,22,17,17,20.60
2009,05,22,17,18,20.50
2009,05,22,17,19,20.50
2009,05,22,17,20,20.40
2009,05,22,17,21,20.20
2009,05,22,17,22,20.20
2009,05,22,17,23,20.20
2009,05,22,17,24,20.20
2009,05,22,17,25,20.20
2009,05,22,17,26,20.20
2009,05,22,17,27,20.20
2009,05,22,17,28,20.10
2009,05,22,17,29,20.00
2009,05,22,17,30,19.90
2009,05,22,17,31,19.90
2009,05,22,17,32,19.90
2009,05,22,17,33,19.90
2009,05,22,17,34,20.00
2009,05,22,17,35,20.10
2009,05,22,17,36,20.10
2009,05,22,17,37,20.10
2009,05,22,17,38,20.10